Regional Weather Roundup
Issued by NWS

Home | Current Version | Previous Version | Graphics & Text | Print | Product List | Glossary Off
Versions: 1 2 3 4 5 6 7 8 9 10 11 12 13 14 15 16 17 18 19 20 21 22 23 24 25 26 27 28 29 30 31 32 33 34 35 36 37 38 39 40 41 42 43 44 45 46 47 48 49 50

000
ASUS43 KMPX 132301
RWRMN
WEATHER ROUNDUP FOR MINNESOTA
NATIONAL WEATHER SERVICE TWIN CITIES/CHANHASSEN MN
500 PM CST WED DEC 13 2017


NOTE: "FAIR" INDICATES FEW OR NO CLOUDS BELOW 12,000 FEET WITH NO
SIGNIFICANT WEATHER AND/OR OBSTRUCTIONS TO VISIBILITY. N/A MEANS
CURRENT SKY AND/OR WEATHER CONDITIONS ARE NOT AVAILABLE.

MNZ060>063-068>070-140000-
   Twin Cities Metro

CITY           SKY/WX    TMP DP  RH WIND       PRES   REMARKS
TWIN CITIES    FLURRIES  24  18  77 N18       29.77R WCI  10
ST PAUL        CLOUDY    24  17  74 NW16G24   29.78R WCI  11
CRYSTAL        CLOUDY    23  15  71 NW12      29.77R WCI  12
BLAINE         FLURRIES  25  18  74 NW17      29.76R WCI  11
LAKEVILLE      CLOUDY    23  18  80 NW16G23   29.75R WCI  10
EDEN PRAIRIE   CLOUDY    24  17  74 NW17G25   29.77R WCI  11
SOUTH ST PAUL  CLOUDY    25  18  74 NW14G20   29.76R WCI  13
LAKE ELMO      CLOUDY    25  19  80 NW10G18   29.76R WCI  15
$$
MNZ001>005-007-008-013>017-022>024-027-028-140000-
   Northwest Minnesota

CITY           SKY/WX    TMP DP  RH WIND       PRES   REMARKS
BEMIDJI        FLURRIES  15  10  81 NW8       29.85R WCI   4
HALLOCK        CLOUDY    19  14  79 N12       29.94R WCI   7
ROSEAU         CLOUDY    16  10  79 NW8       29.92R WCI   5
WARROAD        CLEAR     10   7  85 NW6       29.92R WCI   1
CROOKSTON      CLOUDY    19  16  86 N16G24    29.94R WCI   5
FOSSTON        FLURRIES  16  12  86 N9        29.89R WCI   4
DETROIT LAKES  FLURRIES  21  18  86 N13       29.87R WCI   9
MOORHEAD       CLOUDY    21  16  79 N18G28    29.93R WCI   6
PARK RAPIDS    CLOUDY    17  12  80 N9        29.83R WCI   6
MAHNOMEN       CLOUDY    19  14  81 N14       29.87R WCI   5
$$
MNZ006-009>011-018-025>026-140000-
   North Central Minnesota

CITY           SKY/WX    TMP DP  RH WIND       PRES   REMARKS
BAUDETTE       CLEAR      8   4  83 NW9       29.88R WCI  -5
FLAG ISLAND    CLEAR     10   5  79 CALM      29.90R
INTL FALLS     CLOUDY    17  12  80 N5        29.84R WCI  10
WASKISH        CLOUDY    18  12  79 NW7       29.87R WCI   8
BIG FORK       CLOUDY    19  12  73 N6        29.81R WCI  11
LONGVILLE      FLURRIES  16  12  86 N3        29.83R
GRAND RAPIDS   CLOUDY    20  15  81 N9        29.82R WCI   9
CRANE LAKE     FLURRIES  16  12  86 N3        29.85R
ORR            CLOUDY    18  12  79 CALM      29.80R
COOK           CLOUDY    18  12  79 CALM      29.81R
WALKER         FLURRIES  15  11  84 N5        29.84R WCI   7
$$
MNZ012-019>021-037-140000-
   Northeast Minnesota

CITY           SKY/WX    TMP DP  RH WIND       PRES   REMARKS
DULUTH         LGT SNOW  20  17  88 N8        29.75R FOG     WCI  10
ELY            CLOUDY    14  10  85 NE6       29.79R WCI   5
HIBBING        CLOUDY    17  12  80 N7        29.79R WCI   8
EVELETH        CLOUDY    17  10  74 NE8       29.79R WCI   7
DULUTH HARBOR  FLURRIES  28  21  74 N20       29.79R WCI  15
TWO HARBORS    FLURRIES  25  19  80 N6        29.75R WCI  18
SILVER BAY     CLOUDY    21  16  79 VRB3      29.76R
GRAND MARAIS     N/A     14   6  70 N13G24    29.80R WCI   0
G MARAIS ARPRT CLEAR      7   0  72 N9        29.73R WCI  -7
$$
MNZ029>031-032-039>041-046>048-054>057-064-140000-
   West Central Minnesota

CITY           SKY/WX    TMP DP  RH WIND       PRES   REMARKS
FERGUS FALLS   CLOUDY    21  18  86 N18G29    29.90R WCI   6
WHEATON        CLOUDY    27  21  80 NW21G28   29.91R WCI  13
MORRIS         CLOUDY    25  21  86 N22G28    29.86R WCI  10
ALEXANDRIA     CLOUDY    22  17  81 N14G25    29.82R WCI   9
ELBOW LAKE     CLOUDY    23  19  85 N23G30    29.86R WCI   7
WADENA         FLURRIES  18  16  93 N7        29.84R WCI   8
GLENWOOD       CLOUDY    23  19  86 N16G23    29.83R WCI  10
APPLETON       CLOUDY    28  23  80 N18       29.87R WCI  16
BENSON         CLOUDY    27  21  80 N16G28    29.87R WCI  14
ORTONVILLE     CLOUDY    28  23  80 N21G26    29.86R WCI  15
MADISON        CLOUDY    34  28  80 N15G22    29.86R WCI  24
WILLMAR        CLOUDY    28  21  74 NW16G28   29.83R WCI  17
$$
MNZ033>034-036-042>043-049>051-058-059-140000-
   Central Minnesota

CITY           SKY/WX    TMP DP  RH WIND       PRES   REMARKS
ST CLOUD       CLOUDY    21  15  78 N12       29.81R WCI   9
SAUK CENTRE    FLURRIES  22  17  83 N13       29.82R WCI  10
PAYNESVILLE    CLOUDY    24  20  85 N9G16     29.82R WCI  14
AITKIN         CLOUDY    16  12  86 NW5       29.80R WCI   9
PINE RIVER     FLURRIES  16  10  79 NW6       29.87R WCI   7
BRAINERD       PTCLDY    17  11  77 NW9       29.82R WCI   6
STAPLES        FLURRIES  16  10  79 N13       29.84R WCI   2
LONG PRAIRIE   LGT SNOW  21  16  79 NW13G20   29.81R WCI   9
LITTLE FALLS   FLURRIES  21  12  68 NW3       29.83R
LITCHFIELD     FLURRIES  25  21  86 N16       29.82R WCI  12
BUFFALO        FLURRIES  23  17  78 NW12      29.81R WCI  11
MAPLE LAKE     LGT SNOW  23  19  84 NW13      29.81R WCI  12
HUTCHINSON     FLURRIES  26  22  84 NW16G24   29.81R WCI  14
$$
MNZ037-044-045-052-053-140000-
   East Central Minnesota

CITY           SKY/WX    TMP DP  RH WIND       PRES   REMARKS
PRINCETON      FLURRIES  21  16  79 NW9       29.79R WCI  11
MORA           MOCLDY    21  16  79 N9        29.80R WCI  11
CAMBRIDGE      FLURRIES  25  16  68 NW8G16    29.79R WCI  16
RUSH CITY      CLOUDY    22  17  83 NW6       29.78R WCI  14
MOOSE LAKE     CLOUDY    25  18  74 N8        29.76R WCI  16
HINCKLEY       FAIR      23  18  80 N7        29.79R WCI  15
CLOQUET        CLOUDY    21  16  79 N10       29.77R WCI  10
MCGREGOR       CLOUDY    21  18  86 NW8       29.79R WCI  12
$$
MNZ071>073-080-081-089-090-097-098-140000-
   Southwest Minnesota

CITY           SKY/WX    TMP DP  RH WIND       PRES   REMARKS
MONTEVIDEO     CLOUDY    28  23  80 N21G26    29.85R WCI  15
GRANITE FALLS  CLOUDY    31  25  78 NW21G26   29.85R WCI  19
CANBY          CLOUDY    33  28  83 W16       29.87R WCI  22
MARSHALL       CLOUDY    30  26  85 N14       29.85R WCI  19
REDWOOD FALLS  CLOUDY    29  20  69 N18G35    29.82R WCI  16
OLIVIA         CLOUDY    30  23  74 NW22      29.81R WCI  17
PIPESTONE      MIX PCPN  30  27  86 N14G23    29.84R WCI  20
WINDOM           N/A     30  16  55 NW31G38   29.79R WCI  15
WORTHINGTON    CLOUDY    31  25  78 NW25G32   29.82R WCI  17
JACKSON        CLOUDY    32  23  69 MISG      29.79R
SLAYTON        CLOUDY    31  26  81 NW21G26   29.82R WCI  18
$$
MNZ065>067-074>077-082>085-091>093-140000-
   South Central Minnesota

CITY           SKY/WX    TMP DP  RH WIND       PRES   REMARKS
MANKATO        FLURRIES  27  22  81 NW22G32   29.78R WCI  13
NEW ULM        CLOUDY    28  19  69 N20G30    29.79R WCI  15
ST JAMES       CLOUDY    28  21  74 NW26G37   29.80R WCI  13
FAIRMONT       CLOUDY    30  23  75 NW33G45   29.77  WCI  14
GLENCOE        FLURRIES  26  22  85 N16G22    29.79R WCI  13
FARIBAULT      CLOUDY    25  19  80 NW16      29.76R WCI  12
OWATONNA       CLOUDY    25  19  80 NW23G31   29.74R WCI  10
WASECA         CLOUDY    27  21  80 N21G33    29.77R WCI  13
ALBERT LEA     CLOUDY    27  21  80 N16G22    29.71R WCI  14
$$
MNZ078>079-086>088-094>096-140000-
   Southeast Minnesota

CITY           SKY/WX    TMP DP  RH WIND       PRES   REMARKS
ROCHESTER      CLOUDY    22  18  85 N23G32    29.69R WCI   6
RED WING       CLOUDY    25  16  68 NW8G16    29.74R WCI  16
STANTON        CLOUDY    26  19  75 NW15G22   29.75R WCI  13
DODGE CENTER   CLOUDY    23  18  80 NW21      29.71R WCI   8
WINONA           N/A     25  18  74 N15G23    29.71R WCI  12
PRESTON        CLOUDY    22  17  79 N17G26    29.67R WCI   8
$$
ABBREVIATIONS USED IN REMARKS
   TC - TEMPERATURES IN CELSIUS
  WCI - WIND CHILL INDEX
   HX - HEAT INDEX
  VSB - VISIBILITY
$$




USA.gov is the U.S. government's official web portal to all federal, state and local government web resources and services.